• In Hungary
  • List of Countries
  • For 7 days
  • Water Temperature
  • Satellite Maps
  • Weather Map
  • News
  • Weather Widgets
  • user-avatar
    Login

    Hourly Weather Chuguev

    Today, 23 September, Sunday

    Time Temperature Precipitation Wind Pressure Humidity
    00:00 +19°C° 0 mm 4 mps 750 mmHg 47%
    01:00 +19°C° 0 mm 4 mps 750 mmHg 49%
    02:00 +19°C° 0 mm 4 mps 750 mmHg 51%
    03:00 +19°C° 0 mm 4 mps 749 mmHg 53%
    04:00 +19°C° 0 mm 4 mps 749 mmHg 55%
    05:00 +18°C° 0 mm 4 mps 749 mmHg 57%
    06:00 +18°C° 0.1 mm 4 mps 749 mmHg 60%
    07:00 +18°C° 0.1 mm 4 mps 749 mmHg 63%
    08:00 +18°C° 0.1 mm 4 mps 749 mmHg 66%
    09:00 +17°C° 1.1 mm 4 mps 750 mmHg 71%
    10:00 +15°C° 1.1 mm 4 mps 750 mmHg 76%
    11:00 +14°C° 1.1 mm 4 mps 750 mmHg 81%
    12:00 +14°C° 1.1 mm 4 mps 750 mmHg 78%
    13:00 +14°C° 1.1 mm 4 mps 751 mmHg 75%
    14:00 +14°C° 1.1 mm 4 mps 751 mmHg 72%
    15:00 +14°C° 0 mm 4 mps 751 mmHg 69%
    16:00 +14°C° 0 mm 3 mps 751 mmHg 67%
    17:00 +14°C° 0 mm 3 mps 751 mmHg 64%
    18:00 +15°C° 0 mm 2 mps 751 mmHg 67%
    19:00 +14°C° 0 mm 2 mps 752 mmHg 70%
    20:00 +13°C° 0 mm 2 mps 752 mmHg 73%
    21:00 +12°C° 0 mm 2 mps 752 mmHg 74%
    22:00 +12°C° 0 mm 2 mps 752 mmHg 75%
    23:00 +12°C° 0 mm 2 mps 753 mmHg 76%

    Tomorrow, 24 September, Monday

    Time Temperature Precipitation Wind Pressure Humidity
    00:00 +12°C° 0 mm 2 mps 753 mmHg 77%
    01:00 +10°C° 0 mm 2 mps 753 mmHg 78%
    02:00 +10°C° 0 mm 2 mps 753 mmHg 79%
    03:00 +10°C° 0 mm 2 mps 753 mmHg 79%
    04:00 +10°C° 0 mm 2 mps 752 mmHg 80%
    05:00 +9°C° 0 mm 2 mps 752 mmHg 80%
    06:00 +11°C° 0 mm 3 mps 752 mmHg 74%
    07:00 +12°C° 0 mm 4 mps 751 mmHg 68%
    08:00 +14°C° 0 mm 5 mps 751 mmHg 63%
    09:00 +15°C° 0 mm 6 mps 750 mmHg 57%
    10:00 +17°C° 0 mm 7 mps 750 mmHg 50%
    11:00 +18°C° 0 mm 9 mps 749 mmHg 44%
    12:00 +20°C° 0.3 mm 8 mps 748 mmHg 45%
    13:00 +20°C° 0.3 mm 8 mps 747 mmHg 46%
    14:00 +20°C° 0.3 mm 8 mps 747 mmHg 47%
    15:00 +18°C° 0.9 mm 8 mps 746 mmHg 52%
    16:00 +18°C° 0.9 mm 8 mps 745 mmHg 56%
    17:00 +17°C° 0.9 mm 8 mps 744 mmHg 61%
    18:00 +16°C° 0.7 mm 8 mps 744 mmHg 66%
    19:00 +16°C° 0.7 mm 8 mps 744 mmHg 70%
    20:00 +15°C° 0.7 mm 8 mps 744 mmHg 75%
    21:00 +14°C° 1.9 mm 7 mps 744 mmHg 78%
    22:00 +12°C° 1.9 mm 7 mps 744 mmHg 81%
    23:00 +11°C° 1.9 mm 6 mps 745 mmHg 84%

    Day after tomorrow, 25 September, Tuesday

    Time Temperature Precipitation Wind Pressure Humidity
    00:00 +11°C° 0.6 mm 6 mps 745 mmHg 82%
    01:00 +10°C° 0.6 mm 6 mps 745 mmHg 81%
    02:00 +10°C° 0.6 mm 5 mps 746 mmHg 80%
    03:00 +9°C° 0 mm 5 mps 746 mmHg 81%
    04:00 +9°C° 0 mm 5 mps 746 mmHg 82%
    05:00 +8°C° 0 mm 5 mps 747 mmHg 83%
    06:00 +9°C° 0 mm 5 mps 747 mmHg 81%
    07:00 +9°C° 0 mm 5 mps 747 mmHg 79%
    08:00 +10°C° 0 mm 6 mps 748 mmHg 76%
    09:00 +10°C° 0 mm 6 mps 748 mmHg 72%
    10:00 +11°C° 0 mm 6 mps 748 mmHg 68%
    11:00 +13°C° 0 mm 6 mps 748 mmHg 63%
    12:00 +13°C° 0.3 mm 6 mps 749 mmHg 63%
    13:00 +13°C° 0.3 mm 6 mps 749 mmHg 62%
    14:00 +13°C° 0.3 mm 6 mps 749 mmHg 62%
    15:00 +11°C° 0.1 mm 6 mps 750 mmHg 62%
    16:00 +10°C° 0.1 mm 5 mps 750 mmHg 63%
    17:00 +11°C° 0.1 mm 4 mps 751 mmHg 64%
    18:00 +10°C° 0 mm 4 mps 752 mmHg 66%
    19:00 +9°C° 0 mm 3 mps 752 mmHg 69%
    20:00 +8°C° 0 mm 3 mps 753 mmHg 71%
    21:00 +8°C° 0 mm 3 mps 753 mmHg 72%
    22:00 +7°C° 0 mm 3 mps 754 mmHg 74%
    23:00 +7°C° 0 mm 3 mps 754 mmHg 75%

    26 September, Wednesday

    Time Temperature Precipitation Wind Pressure Humidity
    00:00 +7°C° 0 mm 3 mps 755 mmHg 77%
    01:00 +5°C° 0 mm 3 mps 755 mmHg 79%
    02:00 +5°C° 0 mm 3 mps 756 mmHg 81%
    03:00 +4°C° 0 mm 3 mps 756 mmHg 82%
    04:00 +4°C° 0 mm 3 mps 757 mmHg 84%
    05:00 +4°C° 0 mm 3 mps 757 mmHg 85%
    06:00 +5°C° 0 mm 4 mps 758 mmHg 80%
    07:00 +6°C° 0 mm 4 mps 758 mmHg 75%
    08:00 +6°C° 0 mm 4 mps 758 mmHg 71%
    09:00 +8°C° 0 mm 4 mps 759 mmHg 64%
    10:00 +10°C° 0 mm 4 mps 759 mmHg 57%
    11:00 +10°C° 0 mm 5 mps 760 mmHg 51%
    12:00 +12°C° 0 mm 5 mps 760 mmHg 49%
    13:00 +12°C° 0 mm 5 mps 760 mmHg 47%
    14:00 +12°C° 0 mm 5 mps 760 mmHg 45%
    15:00 +11°C° 0 mm 4 mps 760 mmHg 47%
    16:00 +11°C° 0 mm 3 mps 760 mmHg 48%
    17:00 +10°C° 0 mm 3 mps 760 mmHg 49%
    18:00 +9°C° 0 mm 3 mps 761 mmHg 51%
    19:00 +8°C° 0 mm 2 mps 761 mmHg 53%
    20:00 +7°C° 0 mm 2 mps 761 mmHg 55%
    21:00 +7°C° 0 mm 3 mps 761 mmHg 56%
    22:00 +7°C° 0 mm 3 mps 761 mmHg 58%
    23:00 +5°C° 0 mm 3 mps 761 mmHg 59%

    27 September, Thursday

    Time Temperature Precipitation Wind Pressure Humidity
    00:00 +5°C° 0 mm 3 mps 761 mmHg 61%
    01:00 +5°C° 0 mm 4 mps 760 mmHg 62%
    02:00 +5°C° 0 mm 4 mps 760 mmHg 63%
    03:00 +5°C° 0 mm 4 mps 760 mmHg 64%
    04:00 +5°C° 0 mm 4 mps 759 mmHg 65%
    05:00 +5°C° 0 mm 5 mps 759 mmHg 65%
    06:00 +5°C° 0 mm 6 mps 758 mmHg 62%
    07:00 +7°C° 0 mm 6 mps 758 mmHg 58%
    08:00 +9°C° 0 mm 7 mps 758 mmHg 54%
    09:00 +10°C° 0 mm 8 mps 757 mmHg 49%
    10:00 +11°C° 0 mm 8 mps 757 mmHg 45%
    11:00 +13°C° 0 mm 8 mps 756 mmHg 40%
    12:00 +15°C° 0 mm 8 mps 756 mmHg 39%
    13:00 +15°C° 0 mm 8 mps 755 mmHg 39%
    14:00 +16°C° 0 mm 8 mps 754 mmHg 38%
    15:00 +15°C° 0 mm 8 mps 754 mmHg 40%
    16:00 +15°C° 0 mm 7 mps 753 mmHg 42%
    17:00 +14°C° 0 mm 6 mps 753 mmHg 44%
    18:00 +14°C° 0 mm 6 mps 753 mmHg 45%
    19:00 +13°C° 0 mm 6 mps 753 mmHg 45%
    20:00 +13°C° 0 mm 6 mps 753 mmHg 46%
    21:00 +13°C° 0 mm 6 mps 753 mmHg 46%
    22:00 +13°C° 0 mm 6 mps 753 mmHg 47%
    23:00 +13°C° 0 mm 6 mps 752 mmHg 48%

    28 September, Friday

    Time Temperature Precipitation Wind Pressure Humidity
    00:00 +13°C° 0 mm 6 mps 752 mmHg 50%
    01:00 +12°C° 0 mm 5 mps 752 mmHg 52%
    02:00 +12°C° 0 mm 5 mps 752 mmHg 54%
    03:00 +12°C° 0 mm 5 mps 752 mmHg 55%
    04:00 +12°C° 0 mm 5 mps 751 mmHg 56%
    05:00 +12°C° 0 mm 5 mps 751 mmHg 58%
    06:00 +12°C° 0 mm 5 mps 751 mmHg 58%
    07:00 +13°C° 0 mm 5 mps 751 mmHg 59%
    08:00 +14°C° 0 mm 5 mps 751 mmHg 59%
    09:00 +15°C° 0 mm 5 mps 751 mmHg 57%
    10:00 +17°C° 0 mm 5 mps 751 mmHg 55%
    11:00 +19°C° 0 mm 5 mps 751 mmHg 53%
    12:00 +20°C° 0 mm 5 mps 751 mmHg 52%
    13:00 +21°C° 0 mm 6 mps 750 mmHg 50%
    14:00 +21°C° 0 mm 6 mps 750 mmHg 48%
    15:00 +21°C° 0 mm 6 mps 749 mmHg 51%
    16:00 +20°C° 0 mm 5 mps 749 mmHg 55%
    17:00 +19°C° 0 mm 4 mps 749 mmHg 58%
    18:00 +18°C° 0 mm 4 mps 749 mmHg 62%
    19:00 +16°C° 0 mm 5 mps 750 mmHg 66%
    20:00 +15°C° 0 mm 5 mps 750 mmHg 70%
    21:00 +14°C° 0 mm 5 mps 751 mmHg 73%
    22:00 +13°C° 0 mm 5 mps 751 mmHg 76%
    23:00 +10°C° 0 mm 5 mps 752 mmHg 79%
    Show more